Regional Weather Roundup
Issued by NWS Green Bay, WI

Home | Current Version | Previous Version | Graphics & Text | Print | Product List | Glossary Off
Versions: 1 2 3 4 5 6 7 8 9 10 11 12 13 14 15 16 17 18 19 20 21 22 23 24 25 26 27 28 29 30 31 32 33 34 35 36 37 38 39 40 41 42 43 44 45 46 47 48 49 50

000
ASUS43 KGRB 262259
RWRGRB

NORTH-CENTRAL AND NORTHEAST WISCONSIN REGIONAL WEATHER ROUNDUP
NATIONAL WEATHER SERVICE GREEN BAY WI
600 PM CDT SUN APR 26 2015

WIZ005-009-010>012-018-019-270000-
NORTH CENTRAL WISCONSIN

CITY           SKY/WX    TMP DP  RH WIND       PRES   REMARKS
IRONWOOD       SUNNY     46  28  49 N5        30.12S
MANITOWISH WTR NOT AVBL
ARBOR VITAE    NOT AVBL
EAGLE RIVER    NOT AVBL
LAND O LAKES   NOT AVBL
RHINELANDER    SUNNY     54  24  31 VRB7G17   30.07R
PHILLIPS       SUNNY     53  27  36 N10G18    30.09R
ANTIGO         NOT AVBL
TOMAHAWK       NOT AVBL
MERRILL        NOT AVBL
$$

WIZ013-073-270000-
NORTHEAST WISCONSIN

CITY           SKY/WX    TMP DP  RH WIND       PRES   REMARKS
IRON MOUNTAIN  SUNNY     55  26  32 N13       30.04S
MARINETTE      SUNNY     48  32  53 E17G25    30.04R
$$

WIZ017-030-035>037-045-270000-
CENTRAL WISCONSIN

CITY           SKY/WX    TMP DP  RH WIND       PRES   REMARKS
MEDFORD        NOT AVBL
WAUSAU         SUNNY     61  21  21 NE10      30.00F
MOSINEE        SUNNY     61  19  20 N10G17    30.03S
MARSHFIELD     SUNNY     62  22  21 N15G21    30.02S
WISC RAPIDS    SUNNY     62  18  18 N9        30.02F
STEVENS POINT  NOT AVBL
WAUPACA        NOT AVBL
SHAWANO        NOT AVBL
CLINTONVILLE   SUNNY     59  27  29 E12       30.01R
$$

WIZ038-039-048-051-270000-
FOX VALLEY

CITY           SKY/WX    TMP DP  RH WIND       PRES   REMARKS
NWS GREEN BAY  SUNNY     56  31  38 NE13      30.03R
APPLETON       MOSUNNY   59  21  23 NE12G18   30.01R
OSHKOSH        SUNNY     58  26  29 E7        29.99F
FOND DU LAC    SUNNY     58  24  27 E6        30.00F
$$

WIZ022-050-052-270000-
EAST CENTRAL WISCONSIN

CITY           SKY/WX    TMP DP  RH WIND       PRES   REMARKS
STURGEON BAY   SUNNY     54  28  37 N14       30.05S
MANITOWOC      NOT AVBL
SHEBOYGAN      MOSUNNY   47  27  45 NE13      30.03S
$$

LMZ563-521-522-541>543-270000-
LAKESHORE

STATION/POSITION TIME  TEMP    WIND        PRES    VSBY  WAVE
                       AIR SEA DIR/SP/G                  HT/PER
                 (UTC) (F)     (DEG/KT/KT) (MB)    (MI)  (FT/S)
SHEBOYGAN LKSHOR 2200   42      30/  7/  8 1017.7S
KEWAUNEE LKSHORE 2200   45      50/  3/  5 1016.5S
NORTHPORT PIER   2200   46      10/ 16/ 17 1017.3S
CHAMBERS ISLAND  2200   44      30/ 15/ 17 1017.6R
MENOMINEE LKSHOR 2200   44      50/ 18/ 21 1017.5R
$$


USA.gov is the U.S. government's official web portal to all federal, state and local government web resources and services.